Location: Unspecified
(0.0000°N, 0.0000°E)
Time: 12:48:50
(UTC+00:00)

NOSS 3-1 (A) - Pass Details

Date: 28 April 2019
Orbit: 778 x 1434 km, 63.4° (Epoch: 13 May)

Event Time Altitude Azimuth Distance (km) Brightness Sun altitude
Rises 02:30:08 0° 5° (N) 4,369 7.1 -49.7°
Reaches altitude 10° 02:33:47 10° 19° (NNE) 3,464 6.6 -48.9°
Maximum altitude 02:40:08 23° 67° (ENE) 2,684 6.1 -47.4°
Drops below altitude 10° 02:46:32 10° 114° (ESE) 3,526 6.7 -45.9°
Sets 02:50:15 0° 128° (SE) 4,468 7.3 -45.0°
